Presure
132 105 99 105 88 114 104 149 135 113 124 126 126 126 120 131 130 133 125 134 130 126 127 134 141 141 141 119 161 144 133 150 151
89 124 126 124 113 124 126 106 161 135 117 119 101 143 132 123 128 137 131 139 89 135 143 127 133 156 136 139 151 143 153 146 156
92 97 115 145 93 99 117 134 117 116 136 157 147 107 118 139 127 132 138 112 127 135 135 134 128 159 144 147 148 171 152 163 155
103 105 104 90 116 109 116 112 107 137 120 104 127 127 146 128 118 144 98 146 132 111 136 138 114 149 148 137 147 157 143 131 159
105 115 101 105 97 141 114 96 98 154 152 117 129 141 141 99 135 133 135 135 133 137 154 167 123 143 141 179 147 140 148 152 144
162 136 122 104 130 117 118 161 160 131 155 156 135 131 136 143 150 121 105 141 147 127 161 82 148 143 154 152 142 157 159 145 149
171 147 149 140 122 139 148 163 154 132 127 161 159 144 127 164 159 148 137 148 143 85 157 149 160 195 160 154 153 148 146 150 154
163 169 170 162 133 127 126 126 136 151 156 170 148 150 161 163 145 145 158 170 158 109 147 150 159 160 150 148 158 144 146 156 144
157 156 162 156 138 119 150 129 90 88 156 106 143 151 146 148 150 153 85 135 128 153 149 152 158 165 158 151 151 162 153 147 150
162 161 117 156 163 107 86 108 156 125 136 122 131 149 153 156 153 154 160 157 145 154 152 154 148 149 155 151 151 167 155 145 156
140 153 134 78 77 77 115 81 82 99 95 146 146 102 190 156 158 135 150 173 168 156 154 145 156 157 145 154 159 168 150 194 159
160 127 77 78 137 84 159 98 158 112 149 129 132 159 158 84 158 160 157 159 154 150 140 151 160 155 153 157 149 169 157 166 187
132 158 151 155 87 156 153 158 160 156 157 156 159 161 167 154 161 162 148 152 138 157 144 165 152 146 148 157 141 189 183 165 171
162 160 162 157 151 144 159 160 155 151 156 159 161 158 158 161 163 155 163 150 142 156 140 134 145 139 171 160 158 172 173 159 178
150 158 180 169 191 168 156 181 174 171 160 143 157 162 140 148 156 154 155 150 153 147 144 144 158 174 160 191 177 165 195 178 141
137 134 135 153 192 159 160 163 150 146 150 150 150 175 153 153 146 164 156 155 143 151 169 153 184 155 150 170 178 179 177 166 126
167 167 168 165 141 149 153 161 164 163 172 164 161 159 161 154 170 157 160 175 164 175 160 180 168 161 153 157 183 160 133 171 174
118 160 177 178 175 168 168 170 182 189 192 149 162 164 162 181 167 170 162 150 180 167 175 174 165 166 162 165 173 165 165 159 172
185 184 197 154 162 135 188 182 179 175 171 175 181 145 162 136 169 147 156 171 172 150 184 147 154 162 167 149 175 187 163 190 159
168 169 170 169 174 173 173 169 169 171 168 176 146 172 133 188 144 158 179 136 180 185 148 176 179 154 189 175 171 153 191 174 170
Wind_Speed
35 26 22 24 16 27 27 44 37 30 33 35 35 35 33 37 38 40 39 40 42 44 46 49 52 52 54 47 49 54 57 55 55
20 32 34 33 27 35 36 28 47 39 33 34 27 44 40 37 38 43 41 44 17 46 48 49 53 52 55 57 53 57 52 57 52
24 23 31 40 21 24 33 43 34 33 43 50 47 31 38 45 41 43 44 34 45 47 49 51 45 50 55 56 57 48 55 49 54
31 30 28 22 35 30 31 31 29 43 38 31 44 44 49 43 40 49 29 50 48 38 52 54 40 54 54 60 58 53 58 54 53
35 36 30 32 27 50 35 25 28 48 49 37 48 50 49 33 49 49 49 50 50 54 54 49 43 56 58 47 58 60 60 56 59
52 52 39 33 43 37 40 50 50 47 49 51 51 46 50 52 54 43 34 55 55 41 50 26 56 58 54 55 58 56 56 59 60
49 53 53 48 48 53 47 52 53 52 50 53 53 44 41 54 53 55 54 56 47 27 48 56 56 48 51 55 57 61 62 62 61
49 49 49 50 58 55 52 50 58 54 51 51 47 54 53 52 56 59 55 49 51 38 57 57 52 51 56 59 58 63 64 62 62
53 54 52 53 61 44 58 55 29 29 52 41 59 57 59 59 58 58 29 52 47 52 56 56 55 54 56 60 62 60 63 64 66
54 54 41 57 55 35 28 37 57 51 55 48 51 60 60 59 59 55 52 52 53 52 55 56 57 58 59 64 64 62 65 65 67
58 58 45 22 21 23 38 28 29 37 35 61 61 41 55 60 58 45 51 51 42 48 55 57 57 59 63 65 67 64 67 62 68
64 51 24 25 57 29 60 38 59 42 62 53 55 60 59 27 55 53 50 45 50 54 57 60 59 61 65 66 67 67 72 67 65
56 66 64 64 30 63 63 62 61 64 63 63 61 61 57 58 56 53 53 54 55 56 58 57 60 66 68 69 66 68 66 66 64
71 70 69 67 66 60 66 65 64 61 63 63 62 60 58 57 53 52 51 54 57 58 60 62 65 68 67 70 71 69 62 69 67
65 67 66 69 62 69 67 63 65 66 64 54 62 63 49 54 56 56 55 56 59 59 63 67 66 65 69 68 70 70 75 67 64
58 58 56 66 62 69 70 71 65 60 60 59 61 64 57 58 55 57 56 58 58 61 64 63 66 70 74 64 69 69 69 70 50
72 72 73 72 59 63 67 73 74 70 70 66 66 63 64 58 63 58 61 66 62 67 62 67 66 67 73 71 73 65 67 69 72
52 72 75 75 76 75 77 77 80 77 76 58 64 65 63 71 62 65 58 55 69 63 71 69 62 63 66 66 70 64 81 73 75
79 75 77 70 72 57 83 80 80 78 73 75 76 55 65 52 65 61 57 61 65 61 80 68 70 65 68 75 71 82 71 83 77
76 77 78 78 80 81 78 75 79 80 71 79 58 72 61 83 59 56 69 61 78 79 66 74 76 70 82 81 77 75 85 75 74
Wind_Direction
266 282 286 287 293 287 299 278 289 296 297 299 301 302 307 307 310 312 312 315 315 318 319 317 316 317 317 328 322 316 323 318 321
272 278 276 277 282 284 281 298 279 287 299 300 309 295 302 307 307 307 310 311 308 313 313 318 316 316 315 314 317 316 320 319 319
272 270 278 265 282 285 290 282 294 292 290 286 290 305 306 299 306 307 307 313 313 312 313 313 314 314 312 312 314 320 314 318 317
264 266 270 282 285 281 279 291 284 289 295 296 299 302 294 303 310 299 312 304 311 312 311 311 317 310 310 315 314 314 317 322 315
260 262 266 270 273 275 276 282 283 277 280 298 297 290 293 305 302 305 306 309 312 311 309 315 306 310 311 321 311 315 314 316 319
256 265 264 269 267 272 283 273 274 290 277 280 294 295 297 294 294 307 307 309 307 311 311 311 307 309 311 310 312 311 313 315 316
259 261 261 271 281 276 270 271 278 288 296 280 282 290 288 288 293 299 309 303 308 310 309 306 310 321 309 309 309 310 313 313 315
257 259 260 259 276 283 285 289 283 274 276 282 287 287 284 286 299 301 298 302 303 305 304 305 309 308 309 308 310 310 312 311 317
256 257 260 260 271 272 266 283 294 295 274 288 288 285 293 294 296 296 309 309 304 303 302 305 307 308 308 305 306 308 308 314 314
256 258 266 259 260 272 284 278 272 280 282 286 297 287 287 288 294 298 298 301 302 301 302 303 305 306 305 304 306 309 308 312 314
263 258 262 275 282 290 273 290 289 281 284 280 286 296 284 288 292 297 302 302 306 300 300 303 306 306 304 304 305 313 310 320 314
256 264 275 279 270 287 262 283 267 277 277 293 289 283 286 295 293 298 301 301 299 299 299 303 306 305 304 303 305 309 308 312 327
260 258 262 262 282 265 268 267 269 270 273 277 278 281 288 294 295 298 298 296 296 300 301 305 302 300 301 303 307 318 318 317 316
254 258 258 261 265 270 269 271 271 275 275 277 280 285 289 295 297 296 297 295 296 300 298 297 298 299 306 302 304 309 312 306 318
257 259 258 260 264 264 269 267 270 272 276 282 284 286 292 296 299 294 295 294 297 297 295 296 298 309 301 316 312 306 319 318 311
259 260 263 265 260 270 271 271 274 278 280 284 285 285 291 292 290 294 296 296 294 293 300 291 311 300 297 307 314 315 317 308 313
256 259 261 263 265 268 273 271 273 276 278 279 281 286 289 288 290 293 295 300 297 302 293 308 300 297 295 302 314 309 309 310 311
268 259 260 261 263 267 270 273 274 274 274 280 284 287 287 289 293 294 294 288 303 299 307 303 299 300 297 302 308 305 309 303 310
256 257 255 265 266 275 267 273 275 276 279 283 285 281 287 282 291 292 288 297 299 283 305 287 295 299 302 293 309 315 302 316 303
263 265 264 263 267 272 274 277 278 279 281 285 282 289 283 293 285 285 296 280 297 300 281 302 302 292 310 306 304 296 315 307 305